When you browse on this site, cookies collect data to enhance your experience and personalize the content and advertising you see.
Visit our Privacy Policy to learn more. By continuing to use the site, you agree to this use of cookies and data.
  • In Latvia
  • List of Countries
  • For 7 days
  • Water Temperature
  • Weather Map
  • Weather Widgets
  • user-avatar
    Login

    Hourly Weather Phin

    Today, 18 January, Saturday

    Time Temperature Precipitation Wind Pressure Humidity
    00:00 +19°C° 0 mm 2 mps 738 mmHg 91%
    01:00 +18°C° 0 mm 2 mps 738 mmHg 92%
    02:00 +18°C° 0 mm 2 mps 738 mmHg 92%
    03:00 +18°C° 0 mm 2 mps 737 mmHg 93%
    04:00 +18°C° 0 mm 2 mps 737 mmHg 93%
    05:00 +18°C° 0 mm 2 mps 737 mmHg 93%
    06:00 +18°C° 0 mm 2 mps 737 mmHg 92%
    07:00 +18°C° 0 mm 2 mps 738 mmHg 96%
    08:00 +21°C° 0 mm 2 mps 738 mmHg 79%
    09:00 +25°C° 0 mm 2 mps 739 mmHg 63%
    10:00 +28°C° 0 mm 2 mps 739 mmHg 46%
    11:00 +30°C° 0 mm 2 mps 738 mmHg 41%
    12:00 +32°C° 0 mm 2 mps 738 mmHg 35%
    13:00 +34°C° 0 mm 2 mps 737 mmHg 30%
    14:00 +34°C° 0 mm 2 mps 736 mmHg 32%
    15:00 +33°C° 0 mm 3 mps 736 mmHg 34%
    16:00 +33°C° 0 mm 3 mps 736 mmHg 36%
    17:00 +29°C° 0 mm 3 mps 736 mmHg 46%
    18:00 +26°C° 0 mm 3 mps 736 mmHg 56%
    19:00 +22°C° 0 mm 3 mps 736 mmHg 66%
    20:00 +21°C° 0 mm 2 mps 737 mmHg 72%
    21:00 +20°C° 0 mm 2 mps 737 mmHg 78%
    22:00 +19°C° 0 mm 2 mps 738 mmHg 84%
    23:00 +19°C° 0 mm 2 mps 737 mmHg 88%

    Tomorrow, 19 January, Sunday

    Time Temperature Precipitation Wind Pressure Humidity
    00:00 +18°C° 0 mm 2 mps 737 mmHg 91%
    01:00 +18°C° 0 mm 2 mps 737 mmHg 94%
    02:00 +18°C° 0 mm 1 mps 737 mmHg 95%
    03:00 +18°C° 0 mm 1 mps 737 mmHg 96%
    04:00 +18°C° 0 mm 1 mps 736 mmHg 97%
    05:00 +18°C° 0 mm 1 mps 737 mmHg 97%
    06:00 +18°C° 0 mm 1 mps 738 mmHg 97%
    07:00 +18°C° 0 mm 1 mps 738 mmHg 96%
    08:00 +20°C° 0 mm 2 mps 738 mmHg 81%
    09:00 +25°C° 0 mm 2 mps 739 mmHg 66%
    10:00 +28°C° 0 mm 2 mps 739 mmHg 50%
    11:00 +30°C° 0 mm 3 mps 739 mmHg 46%
    12:00 +31°C° 0 mm 3 mps 738 mmHg 41%
    13:00 +34°C° 0 mm 3 mps 738 mmHg 37%
    14:00 +33°C° 0 mm 3 mps 737 mmHg 39%
    15:00 +31°C° 0 mm 3 mps 737 mmHg 42%
    16:00 +32°C° 0 mm 4 mps 736 mmHg 45%
    17:00 +28°C° 0 mm 3 mps 737 mmHg 54%
    18:00 +26°C° 0 mm 3 mps 737 mmHg 63%
    19:00 +22°C° 0 mm 3 mps 737 mmHg 73%
    20:00 +21°C° 0 mm 3 mps 738 mmHg 76%
    21:00 +21°C° 0 mm 3 mps 738 mmHg 80%
    22:00 +20°C° 0 mm 2 mps 738 mmHg 84%
    23:00 +19°C° 0 mm 2 mps 738 mmHg 85%

    Day after tomorrow, 20 January, Monday

    Time Temperature Precipitation Wind Pressure Humidity
    00:00 +19°C° 0 mm 2 mps 738 mmHg 86%
    01:00 +19°C° 0 mm 2 mps 738 mmHg 87%
    02:00 +19°C° 0 mm 2 mps 738 mmHg 89%
    03:00 +18°C° 0 mm 2 mps 737 mmHg 90%
    04:00 +18°C° 0 mm 2 mps 737 mmHg 92%
    05:00 +18°C° 0 mm 2 mps 738 mmHg 92%
    06:00 +18°C° 0 mm 2 mps 738 mmHg 91%
    07:00 +18°C° 0 mm 2 mps 739 mmHg 91%
    08:00 +21°C° 0 mm 2 mps 739 mmHg 79%
    09:00 +25°C° 0 mm 3 mps 740 mmHg 66%
    10:00 +28°C° 0 mm 3 mps 740 mmHg 53%
    11:00 +29°C° 0 mm 3 mps 740 mmHg 49%
    12:00 +30°C° 0 mm 3 mps 739 mmHg 45%
    13:00 +33°C° 0 mm 3 mps 738 mmHg 41%
    14:00 +31°C° 0 mm 3 mps 738 mmHg 43%
    15:00 +32°C° 0 mm 4 mps 737 mmHg 45%
    16:00 +30°C° 0 mm 4 mps 737 mmHg 47%
    17:00 +28°C° 0 mm 3 mps 737 mmHg 55%
    18:00 +25°C° 0 mm 3 mps 738 mmHg 63%
    19:00 +22°C° 0 mm 3 mps 738 mmHg 71%
    20:00 +21°C° 0 mm 3 mps 738 mmHg 76%
    21:00 +20°C° 0 mm 2 mps 739 mmHg 81%
    22:00 +20°C° 0 mm 2 mps 739 mmHg 86%
    23:00 +19°C° 0 mm 2 mps 739 mmHg 89%

    21 January, Tuesday

    Time Temperature Precipitation Wind Pressure Humidity
    00:00 +19°C° 0 mm 2 mps 739 mmHg 91%
    01:00 +18°C° 0 mm 2 mps 739 mmHg 93%
    02:00 +18°C° 0 mm 2 mps 738 mmHg 94%
    03:00 +19°C° 0 mm 1 mps 738 mmHg 94%
    04:00 +19°C° 0 mm 1 mps 738 mmHg 95%
    05:00 +19°C° 0 mm 1 mps 738 mmHg 95%
    06:00 +19°C° 0 mm 1 mps 738 mmHg 95%
    07:00 +19°C° 0 mm 1 mps 739 mmHg 94%
    08:00 +22°C° 0 mm 1 mps 739 mmHg 81%
    09:00 +25°C° 0 mm 2 mps 740 mmHg 68%
    10:00 +28°C° 0 mm 2 mps 740 mmHg 55%
    11:00 +30°C° 0 mm 2 mps 740 mmHg 49%
    12:00 +32°C° 0 mm 2 mps 739 mmHg 43%
    13:00 +35°C° 0 mm 2 mps 738 mmHg 37%
    14:00 +34°C° 0 mm 2 mps 738 mmHg 39%
    15:00 +34°C° 0 mm 2 mps 738 mmHg 41%
    16:00 +33°C° 0 mm 3 mps 737 mmHg 43%
    17:00 +30°C° 0 mm 3 mps 737 mmHg 53%
    18:00 +27°C° 0 mm 3 mps 737 mmHg 64%
    19:00 +24°C° 0 mm 3 mps 738 mmHg 75%
    20:00 +23°C° 0 mm 2 mps 738 mmHg 80%
    21:00 +21°C° 0 mm 2 mps 738 mmHg 85%
    22:00 +20°C° 0 mm 2 mps 739 mmHg 90%
    23:00 +19°C° 0 mm 2 mps 738 mmHg 92%

    22 January, Wednesday

    Time Temperature Precipitation Wind Pressure Humidity
    00:00 +20°C° 0 mm 1 mps 738 mmHg 95%
    01:00 +19°C° 0 mm 1 mps 738 mmHg 97%
    02:00 +19°C° 0 mm 1 mps 737 mmHg 97%
    03:00 +19°C° 0 mm 1 mps 737 mmHg 98%
    04:00 +18°C° 0 mm 1 mps 736 mmHg 98%
    05:00 +18°C° 0 mm 1 mps 737 mmHg 97%
    06:00 +19°C° 0 mm 1 mps 737 mmHg 96%
    07:00 +19°C° 0 mm 1 mps 738 mmHg 95%
    08:00 +23°C° 0 mm 1 mps 738 mmHg 78%
    09:00 +28°C° 0 mm 1 mps 739 mmHg 61%
    10:00 +30°C° 0 mm 0 mps 739 mmHg 44%
    11:00 +34°C° 0 mm 1 mps 738 mmHg 38%
    12:00 +36°C° 0 mm 1 mps 737 mmHg 33%
    13:00 +39°C° 0 mm 1 mps 737 mmHg 27%
    14:00 +37°C° 0 mm 1 mps 736 mmHg 27%
    15:00 +37°C° 0 mm 1 mps 735 mmHg 26%
    16:00 +36°C° 0 mm 1 mps 735 mmHg 26%
    17:00 +33°C° 0 mm 1 mps 735 mmHg 35%
    18:00 +30°C° 0 mm 1 mps 735 mmHg 44%
    19:00 +27°C° 0 mm 1 mps 735 mmHg 53%
    20:00 +25°C° 0 mm 1 mps 735 mmHg 64%
    21:00 +24°C° 0 mm 1 mps 736 mmHg 75%
    22:00 +22°C° 0 mm 1 mps 736 mmHg 86%
    23:00 +22°C° 0 mm 1 mps 735 mmHg 89%

    23 January, Thursday

    Time Temperature Precipitation Wind Pressure Humidity
    00:00 +21°C° 0 mm 1 mps 735 mmHg 92%
    01:00 +21°C° 0 mm 1 mps 735 mmHg 95%
    02:00 +21°C° 0 mm 1 mps 735 mmHg 94%
    03:00 +21°C° 0 mm 1 mps 734 mmHg 94%
    04:00 +21°C° 0 mm 1 mps 734 mmHg 93%
    05:00 +21°C° 0 mm 1 mps 735 mmHg 91%
    06:00 +21°C° 0 mm 1 mps 735 mmHg 89%
    07:00 +21°C° 0 mm 1 mps 736 mmHg 87%
    08:00 +26°C° 0 mm 1 mps 736 mmHg 71%
    09:00 +28°C° 0 mm 0 mps 737 mmHg 54%
    10:00 +33°C° 0 mm 0 mps 737 mmHg 38%
    11:00 +36°C° 0 mm 1 mps 736 mmHg 34%
    12:00 +37°C° 0 mm 1 mps 736 mmHg 30%
    13:00 +39°C° 0 mm 2 mps 735 mmHg 26%
    14:00 +38°C° 0 mm 2 mps 734 mmHg 26%
    15:00 +37°C° 0 mm 1 mps 734 mmHg 26%
    16:00 +37°C° 0 mm 1 mps 734 mmHg 26%
    17:00 +34°C° 0 mm 1 mps 734 mmHg 33%
    18:00 +31°C° 0 mm 1 mps 734 mmHg 40%
    19:00 +26°C° 0 mm 0 mps 734 mmHg 47%
    20:00 +27°C° 0 mm 1 mps 734 mmHg 54%
    21:00 +26°C° 0 mm 1 mps 735 mmHg 61%
    22:00 +25°C° 0 mm 1 mps 735 mmHg 69%
    23:00 +24°C° 0 mm 1 mps 735 mmHg 74%
    Show more